RH
75 69 70 88 99 96 92 73 65 77 70 44 39 49 68 56 70 88 83 74 71 74 81 78 84 80 78 81 82 79 77 78 79 77 78 76 76 76 75 74 74 74 73 73 70 71 71 71 71
67 63 84 96 99 95 87 64 64 72 46 43 43 47 56 80 74 86 84 66 64 70 80 84 85 82 79 81 81 80 76 76 79 79 78 74 72 72 73 74 74 73 72 71 70 70 71 70 69
57 55 93 96 94 94 94 63 59 52 40 46 52 48 55 88 75 72 64 58 57 65 81 84 85 84 80 80 80 80 78 76 76 75 74 74 74 73 71 70 71 73 72 71 70 70 70 69 70
59 88 90 96 90 81 79 63 43 42 43 44 49 64 60 62 68 68 58 58 60 78 79 82 81 81 80 80 80 78 76 76 76 76 74 74 73 72 73 73 71 71 71 70 70 69 68 69 68
69 88 91 88 77 83 60 44 42 47 48 55 56 74 78 65 60 60 58 54 66 76 82 81 83 83 80 80 77 77 76 75 76 76 74 74 72 73 72 71 71 71 70 69 68 68 68 68 70
91 92 93 93 84 68 52 44 35 41 50 58 69 72 80 61 59 60 55 56 63 75 80 77 80 82 81 77 76 78 76 74 76 76 73 74 74 74 76 70 69 68 68 68 69 69 71 72 71
78 84 85 86 82 67 48 52 39 46 53 58 56 80 76 64 56 55 51 54 62 68 76 80 78 73 77 79 77 76 75 74 74 74 74 73 72 71 72 71 70 67 66 66 66 69 74 74 72
59 65 65 91 79 70 35 28 35 46 52 45 52 84 86 65 56 52 51 55 57 69 74 78 85 87 89 84 76 75 75 74 74 73 72 71 70 69 69 77 75 65 64 64 65 68 73 74 73
43 67 60 67 67 46 39 42 36 35 48 48 45 62 60 55 53 56 61 68 64 64 69 74 82 84 84 84 75 77 74 75 74 74 72 78 84 83 71 75 74 67 66 65 66 71 72 72 70
54 59 66 48 47 48 36 39 36 41 53 62 63 56 51 53 58 63 66 63 62 65 67 66 74 77 76 64 85 88 80 85 84 84 88 92 89 90 74 75 75 71 71 68 71 72 70 68 83
40 53 56 43 39 36 30 31 23 40 63 63 68 60 53 54 56 57 58 56 56 58 58 59 63 67 68 71 85 88 85 84 88 77 91 94 90 91 80 81 86 88 83 86 88 88 90 79 80
38 45 40 35 34 32 35 34 24 35 54 53 54 52 54 57 58 56 51 50 50 53 51 54 56 62 65 70 76 74 73 77 84 91 85 95 94 90 89 94 91 97 98 95 95 97 94 90 81
29 45 33 31 32 36 35 31 28 49 51 52 52 52 56 58 55 51 48 44 44 48 46 50 55 69 65 61 67 68 63 64 69 74 80 96 96 88 89 90 94 96 97 96 97 94 92 87 75
23 36 32 30 36 36 36 34 33 46 47 52 53 57 55 54 51 52 51 50 47 45 44 54 53 70 62 67 76 70 64 62 61 73 76 84 96 91 89 94 82 95 91 92 96 87 87 82 74
18 23 35 33 37 45 34 48 51 52 43 51 54 56 56 54 51 52 50 51 53 51 48 53 58 71 67 70 72 68 70 56 60 74 71 71 78 87 86 84 85 88 92 86 84 79 76 69 65
22 24 34 25 32 32 40 88 61 43 58 50 50 52 53 54 52 49 48 48 48 50 54 56 46 65 75 74 74 77 71 62 58 71 74 67 69 78 90 95 95 91 90 91 77 86 82 77 73
28 34 31 28 23 23 33 91 61 48 60 50 47 49 50 52 51 48 46 46 44 47 52 55 57 62 76 78 81 75 75 77 69 69 74 70 70 76 93 95 92 88 93 82 82 74 78 84 72
37 34 30 31 24 23 48 55 63 56 58 57 55 60 47 50 47 46 45 42 42 48 51 49 61 65 69 78 85 79 81 80 67 70 75 77 79 78 93 94 87 89 90 83 86 72 79 79 66
26 26 26 20 20 24 32 52 54 55 47 49 50 60 53 43 41 39 41 41 42 50 54 53 68 71 69 76 74 90 82 81 69 68 78 79 80 77 89 95 91 88 90 83 79 79 79 68 67
22 25 26 19 16 22 42 55 52 52 62 54 51 64 60 38 37 38 37 38 42 54 50 67 62 73 68 71 68 83 82 79 72 70 70 79 78 82 84 90 91 86 84 86 80 81 83 85 73
23 25 24 24 16 23 38 53 52 48 59 55 55 57 46 36 36 39 37 40 42 54 57 56 70 78 70 75 74 82 84 80 78 75 69 80 74 78 81 86 90 88 88 87 83 83 81 85 74
26 18 20 21 22 42 24 51 63 55 54 51 51 50 42 33 33 36 37 39 43 51 57 56 72 76 72 76 73 68 63 71 82 70 74 78 76 79 81 83 83 84 94 87 84 81 87 83 83
18 16 16 19 24 25 31 34 60 47 46 48 46 47 43 36 31 35 36 37 38 45 55 60 62 76 69 72 66 74 82 81 73 77 71 80 82 77 82 84 82 86 88 89 89 87 88 89 81
14 16 17 17 22 31 24 32 37 39 44 41 44 45 44 34 30 31 34 34 37 44 53 62 65 68 69 74 85 72 77 75 79 75 79 84 83 77 81 81 81 86 89 89 90 90 84 87 91
16 21 28 29 31 34 23 26 34 22 23 31 34 41 40 29 30 31 35 36 38 44 51 62 68 71 75 72 67 84 79 79 74 71 74 85 87 74 83 85 84 84 85 89 87 88 88 90 88
18 18 26 35 30 26 19 24 22 16 16 14 22 30 28 29 29 30 32 35 35 39 49 58 70 70 71 78 74 65 78 78 65 84 75 68 78 71 68 75 84 80 81 86 92 90 93 92 92
16 18 14 20 26 28 24 19 16 13 14 13 15 23 26 27 29 30 30 32 34 38 47 54 68 70 71 70 76 75 68 82 73 63 85 85 72 70 72 71 76 87 83 83 88 96 92 94 94
12 12 17 14 27 26 20 23 20 16 13 15 12 17 19 23 28 29 30 31 34 34 41 47 63 69 72 71 72 74 77 70 80 78 81 68 75 77 74 75 76 81 86 83 88 92 94 93 97
16 16 13 16 21 28 31 19 14 16 13 13 13 16 18 20 26 28 30 30 33 33 38 45 54 68 73 74 72 74 79 78 72 82 77 74 80 74 92 89 83 78 80 88 88 91 92 94 95
14 13 16 16 22 22 23 17 17 13 12 11 14 12 18 17 26 27 29 29 32 34 35 42 51 61 68 70 74 74 74 80 82 73 75 76 73 86 76 87 83 82 79 81 91 93 81 87 94
Wind_Speed
9 8 3 2 2 2 4 3 3 5 3 7 12 10 9 5 3 5 13 12 12 8 8 11 17 18 19 16 15 14 12 13 13 13 13 14 13 12 14 13 13 13 13 12 12 11 9 9 8
8 9 1 2 3 2 2 4 12 7 20 17 16 11 8 6 8 15 12 15 14 13 8 10 18 18 18 16 14 13 14 13 12 12 12 12 12 12 12 12 13 12 12 11 11 9 9 8 6
10 11 1 2 2 4 4 6 7 12 18 12 7 8 7 6 15 16 14 17 14 12 12 11 16 18 18 16 14 13 14 12 12 12 11 12 11 11 11 11 11 11 10 10 9 8 8 7 5
7 1 4 1 2 10 6 12 14 17 14 13 15 11 10 10 16 10 19 14 16 15 14 15 17 18 17 16 14 14 13 13 11 11 11 10 10 10 10 10 10 10 10 9 9 8 7 6 4
4 2 2 4 3 5 11 16 14 16 11 16 8 8 13 5 18 22 16 12 17 15 13 12 16 17 16 15 14 14 12 13 10 10 11 9 9 8 11 10 10 9 9 8 8 8 7 6 4
3 4 3 3 8 14 17 13 15 18 18 19 16 15 6 19 21 16 14 16 16 16 13 12 15 16 15 15 15 13 12 11 9 9 9 8 7 7 8 9 9 9 9 8 8 7 6 6 5
5 3 7 4 7 11 16 12 17 20 18 15 19 10 15 20 16 14 15 15 17 16 13 10 10 13 15 13 14 13 12 11 9 9 8 7 6 6 6 6 7 8 8 7 6 6 5 6 4
7 4 3 6 11 6 4 8 24 22 17 21 14 9 18 18 21 15 16 15 17 16 13 10 7 7 6 7 13 12 12 10 9 8 6 6 5 6 7 5 4 4 4 4 4 3 3 3 3
19 9 8 0 2 8 9 6 15 17 25 10 10 23 24 20 19 15 12 10 16 15 13 11 10 8 7 6 8 10 11 10 9 7 7 5 3 4 7 7 7 6 5 4 1 2 4 3 3
14 5 5 8 7 4 16 8 17 14 20 20 22 22 25 22 19 17 14 13 15 17 15 11 11 10 9 8 6 5 6 4 5 5 4 4 4 5 6 7 7 5 6 4 2 6 3 2 2
15 10 2 7 10 13 7 7 6 22 21 28 28 28 25 23 17 16 16 14 17 18 14 15 13 11 11 8 6 3 3 4 4 6 5 5 3 3 2 3 2 3 13 3 7 5 3 1 2
14 7 7 9 9 5 5 2 15 18 18 26 30 25 23 20 15 15 16 16 17 18 18 17 14 13 10 8 7 7 5 5 4 5 7 3 1 4 3 4 4 4 6 7 5 2 5 5 5
16 13 15 12 11 10 14 2 4 28 29 27 27 24 21 18 18 13 13 14 22 18 17 17 16 10 11 10 8 6 7 6 7 7 7 6 4 3 3 3 5 4 1 2 3 3 4 5 4
15 18 20 16 12 6 10 11 5 24 29 27 26 24 20 18 20 14 13 12 15 14 16 16 16 12 10 7 5 4 5 6 7 5 4 11 7 4 2 4 5 4 4 5 4 5 4 4 3
20 16 17 16 16 1 12 5 9 8 25 27 25 24 22 18 14 17 14 13 10 8 16 18 14 9 9 6 3 1 2 5 5 5 6 7 6 5 4 4 3 3 3 3 3 2 2 3 2
20 18 17 12 23 13 17 5 12 3 6 21 24 23 23 24 22 19 18 16 13 9 17 17 14 11 8 7 4 2 1 1 3 6 5 6 6 6 4 5 4 1 3 1 3 1 1 2 3
11 12 10 7 11 12 20 13 19 15 11 9 21 21 22 23 26 22 21 20 18 14 18 17 15 14 9 8 5 4 3 2 4 5 5 7 6 6 5 4 3 2 2 3 2 1 2 1 3
11 8 9 15 18 21 14 15 20 19 17 10 6 4 21 23 25 25 26 22 19 14 19 16 13 15 13 7 5 3 3 3 3 2 6 7 5 7 6 4 3 4 3 1 1 2 1 1 2
14 17 13 14 17 14 10 20 26 18 17 19 16 11 13 23 24 23 25 24 21 15 17 17 13 16 11 8 8 4 5 3 3 3 5 8 6 7 7 5 5 4 4 5 4 1 2 1 1
19 20 17 16 18 12 19 24 21 23 13 20 21 14 17 21 19 19 20 21 21 18 18 12 14 17 13 10 8 4 4 3 3 3 5 6 7 7 6 6 6 5 3 4 3 2 1 1 1
19 19 19 14 13 10 16 9 15 8 7 13 14 20 22 25 23 20 20 19 20 19 19 17 14 16 14 10 7 4 2 2 3 3 4 5 7 7 7 7 5 4 4 4 3 4 4 2 1
18 20 20 20 11 5 11 9 13 18 17 16 22 24 21 24 24 21 22 20 21 19 19 19 14 15 13 12 11 12 9 7 4 5 4 5 7 7 7 8 7 6 4 5 5 4 3 3 2
18 11 19 21 15 9 8 6 12 25 23 22 27 27 25 23 27 26 26 25 22 21 20 18 18 15 14 14 12 9 7 5 4 3 6 6 6 7 7 8 7 6 4 5 6 4 5 3 3
16 15 17 17 14 13 10 11 7 23 25 25 29 29 30 28 28 27 26 22 21 19 19 18 19 18 16 14 10 13 10 8 5 5 4 4 5 7 7 9 8 7 6 6 5 5 6 5 3
19 12 8 9 10 11 10 6 9 10 12 30 35 34 33 31 28 27 26 24 21 22 21 19 21 19 17 18 16 11 11 10 10 8 6 6 5 6 8 7 8 7 6 6 6 6 6 5 3
19 20 8 11 7 10 8 8 10 11 2 14 29 37 32 31 28 28 28 26 24 24 24 23 23 22 20 18 19 17 12 8 9 7 6 6 5 8 12 10 8 10 9 7 6 4 5 5 4
12 20 11 4 6 2 5 8 13 18 10 8 11 28 31 30 30 29 28 26 26 23 25 24 23 23 23 22 17 17 16 12 11 12 6 5 6 6 10 12 11 9 9 9 7 5 6 6 5
19 12 13 9 9 11 10 9 15 13 17 10 12 21 25 28 29 27 27 25 24 24 23 24 23 23 22 21 17 16 17 16 11 9 9 10 7 6 6 11 12 12 10 11 9 5 6 6 5
12 12 15 6 6 7 5 12 11 18 21 18 17 12 21 20 27 26 25 25 25 24 21 22 22 22 20 19 19 17 16 16 14 10 11 10 7 8 6 9 10 12 12 9 9 7 7 8 7
18 18 11 12 13 4 5 11 5 9 27 21 15 12 15 19 27 26 26 26 24 23 21 21 20 21 22 20 17 17 14 14 14 14 11 10 11 7 9 9 11 12 12 10 9 10 10 11 10
Wind_Direction
162 177 213 319 293 201 325 251 116 157 60 77 108 119 93 73 33 113 141 129 142 156 132 134 132 126 128 124 118 117 109 103 102 99 100 100 98 101 104 102 106 109 108 110 108 105 100 87 81
177 182 113 285 275 3 230 255 190 208 115 110 99 104 69 76 77 126 127 151 157 131 127 125 130 128 129 125 125 118 112 112 112 104 101 101 102 101 101 104 104 108 111 111 111 109 108 103 95
184 186 235 201 24 319 264 230 153 171 119 111 104 55 70 93 120 140 131 157 140 134 118 125 124 127 128 129 126 122 121 120 108 107 108 110 106 106 108 109 107 106 109 112 117 119 118 113 115
183 324 275 251 344 259 249 312 163 124 98 97 114 75 78 116 139 137 155 157 125 119 121 131 134 130 133 130 130 128 130 123 118 115 110 103 109 109 116 114 115 119 121 124 128 130 129 125 133
244 225 355 290 281 270 249 248 129 124 93 106 94 91 110 82 118 139 158 159 124 119 120 132 136 132 130 131 133 136 140 126 125 122 116 111 107 116 117 115 117 118 120 122 126 129 132 134 137
211 79 32 332 334 275 278 294 151 119 116 103 99 111 82 133 137 159 165 130 118 122 126 138 139 130 136 139 138 138 130 132 132 124 120 118 115 109 111 117 124 125 124 125 121 120 123 127 128
235 196 124 254 242 283 271 229 135 127 127 120 133 100 132 143 153 161 130 131 129 129 132 133 135 143 145 138 143 139 143 146 146 140 136 136 131 128 135 139 138 135 128 119 122 134 140 134 142
221 241 200 191 281 274 31 237 114 128 129 134 127 139 157 161 155 165 140 142 139 131 134 139 145 129 128 139 145 149 156 154 155 151 151 154 167 179 174 165 156 129 108 105 131 146 141 139 142
235 258 282 2 273 295 48 12 111 116 135 150 201 140 152 159 145 147 150 146 132 138 144 147 144 149 143 143 162 165 161 167 170 164 178 195 187 218 203 189 176 175 135 104 266 242 155 187 157
229 235 235 210 230 233 149 205 133 123 105 101 107 123 146 146 154 165 163 151 147 147 150 158 155 165 156 162 158 166 183 180 195 168 177 213 218 184 206 171 189 173 112 71 5 316 316 205 345
245 224 208 259 273 267 229 180 158 134 128 138 137 143 153 160 165 162 167 160 156 156 156 165 168 169 171 149 174 184 184 196 190 178 157 220 225 223 176 138 182 85 72 5 306 349 324 204 243
217 206 201 277 270 304 279 134 146 139 146 144 142 149 154 160 165 169 171 166 162 165 164 170 171 170 174 161 182 186 188 192 187 198 189 200 182 162 166 160 181 91 176 209 215 227 256 255 238
225 194 212 237 241 259 290 259 272 120 136 140 143 157 163 160 170 174 172 174 163 174 170 169 171 156 163 171 191 187 198 187 188 192 195 89 26 244 179 149 95 120 267 206 204 241 241 268 195
242 189 210 189 252 213 230 10 92 128 135 144 151 156 169 173 173 169 188 172 175 178 168 163 171 155 162 165 167 206 198 157 173 179 169 137 178 196 181 143 152 188 183 190 201 195 188 236 277
251 255 227 208 210 190 182 66 352 35 145 148 157 157 169 181 179 178 185 186 195 182 155 160 165 149 145 155 143 284 205 144 156 170 169 153 156 180 99 133 150 165 235 216 252 165 170 233 246
244 250 228 220 173 188 178 151 171 57 0 153 161 165 172 180 185 188 188 187 201 185 159 160 166 152 150 154 158 257 297 171 160 152 171 159 141 130 142 94 116 131 228 150 165 167 4 351 312
259 247 230 240 204 176 190 153 209 181 180 205 169 174 178 183 189 189 194 192 194 188 163 160 162 163 157 155 161 213 251 270 209 160 174 170 159 144 127 134 186 160 283 196 141 176 169 240 295
235 231 235 218 237 210 147 175 184 188 185 156 180 229 182 188 195 191 191 195 193 178 164 168 160 164 165 155 157 203 228 263 208 206 175 167 169 163 141 161 183 184 257 331 247 182 25 146 221
242 244 223 240 224 220 185 152 174 201 193 185 183 209 235 192 194 193 196 189 189 172 163 173 149 165 162 166 178 178 204 228 224 224 166 166 174 177 153 174 179 207 193 202 191 168 105 345 55
237 247 258 235 247 194 135 161 187 173 174 185 201 198 235 187 189 179 172 172 170 169 173 164 162 164 172 173 180 167 177 198 194 210 173 179 180 173 158 159 197 193 167 196 193 149 86 326 143
235 241 247 252 254 134 132 140 165 192 266 263 180 208 208 184 189 180 179 174 171 168 174 176 166 162 173 170 166 160 161 190 187 208 217 186 185 172 165 169 182 199 177 180 187 161 154 201 265
220 237 248 258 261 182 170 159 200 175 209 212 212 199 217 187 186 183 185 179 177 175 173 175 167 165 176 168 174 188 199 195 196 187 198 192 185 177 176 175 181 179 181 190 204 181 185 156 185
235 226 242 254 263 269 220 205 203 197 210 198 214 198 208 206 186 184 187 183 182 173 173 175 177 170 177 180 183 183 189 186 184 176 193 189 196 190 177 174 178 190 175 183 193 198 201 169 155
225 227 242 245 244 249 240 194 203 198 208 198 205 200 202 202 187 188 186 182 177 173 172 173 178 182 180 186 181 193 194 191 195 200 188 192 186 196 188 181 182 184 180 187 194 193 184 173 161
212 218 231 239 227 231 238 212 213 227 196 192 193 190 201 190 185 183 180 183 179 171 175 175 179 186 185 190 200 195 196 190 197 203 195 188 170 189 201 182 187 185 187 192 180 179 190 188 169
211 217 198 210 206 230 238 248 255 253 213 195 181 183 188 184 184 181 182 181 182 177 175 178 181 186 189 187 198 206 204 199 204 191 196 202 183 179 198 198 185 191 187 186 183 181 189 181 187
210 216 213 248 218 211 194 253 258 263 258 216 202 173 186 182 180 180 180 180 181 179 178 181 184 188 190 195 195 200 206 204 202 208 195 196 205 186 194 197 193 182 186 193 189 178 188 173 187
214 173 216 219 205 223 236 218 231 234 246 221 218 194 184 181 176 178 177 178 181 184 181 182 182 189 192 194 195 199 201 207 204 189 199 209 218 222 181 193 192 186 185 194 188 180 177 183 191
215 210 200 181 176 183 204 237 221 217 223 216 212 179 184 174 175 176 175 177 180 185 179 183 181 185 189 192 198 199 201 204 205 201 202 207 201 209 175 171 181 192 195 188 183 181 181 194 191
212 213 203 199 226 218 191 256 308 317 205 208 202 201 169 177 172 173 173 175 179 183 182 183 182 184 190 194 191 202 201 200 199 208 207 201 210 203 192 186 186 190 199 192 182 185 200 201 199